Weather History for KHRX - October, 2013

Change the Weather History Date:

Wednesday, October 2, 2013

  Actual Average (KAMA) Record (KAMA)
Temperature  
Mean Temperature 69 °F 63 °F  
Max Temperature 92 °F 76 °F 94 °F (1973)
Min Temperature 46 °F 50 °F 36 °F (1999)
Degree Days  
Heating Degree Days 0 4  
Month to date heating degree days 8  
Since 1 July heating degree days 52  
Cooling Degree Days 4 2  
Month to date cooling degree days 4  
Year to date cooling degree days 1374  
Growing Degree Days 19 (Base 50)    
Moisture  
Dew Point 37 °F    
Average Humidity 41    
Maximum Humidity 83    
Minimum Humidity 7    
Precipitation  
Precipitation 0.00 in 0.06 in 2.04 in (1942)
Month to date precipitation 0.13  
Year to date precipitation 17.32  
Snow  
Snow 0.00 in 0.00 in 0.00 in ()
Month to date snowfall 0.0  
Since 1 July snowfall T  
Since 1 September snowfall T  
Snow Depth -    
Sea Level Pressure  
Sea Level Pressure 29.92 in    
Wind  
Wind Speed 8 mph (SW)    
Max Wind Speed 15 mph    
Max Gust Speed 20 mph    
Visibility 9 miles    
Events      
T = Trace of Precipitation, MM = Missing Value Source: NWS Daily Summary

Daily Weather History Graph

Daily Weather History Graph

Search for Another Location

Airport or City:

Trip Planner

Search our weather history database for the weather conditions in past years. The results will help you decide how hot, cold, wet, or windy it might be!

Date:

Astronomy

Oct. 02, 2013 Rise Set
Actual Time 7:45 AM CDT 7:31 PM CDT
Civil Twilight 7:19 AM CDT 7:56 PM CDT
Nautical Twilight 6:50 AM CDT 8:25 PM CDT
Astronomical Twilight 6:21 AM CDT 8:55 PM CDT
Moon 5:24 AM CDT (10/2) 6:05 PM CDT (10/2)
Length of Visible Light 12h 36m
Length of Day
11h 46m
Waning Crescent, 6% of the Moon is Illuminated
Oct 2
Waning Crescent
Oct 4
New
Oct 11
First Quarter
Oct 18
Full
Oct 26
Last Quarter

Hourly Weather History & Observations

Time (CDT) Temp. Dew Point Humidity Pressure Visibility Wind Dir Wind Speed Gust Speed Precip Events Conditions
12:15 AM 68.2 °F 47.5 °F 47% 29.95 in 10.0 mi SSE 15.0 mph 19.6 mph N/A   Clear
12:35 AM 67.1 °F 48.6 °F 51% 29.94 in 10.0 mi SSE 13.8 mph 19.6 mph N/A   Clear
12:55 AM 64.9 °F 49.8 °F 58% 29.94 in 10.0 mi SSE 12.7 mph - N/A   Clear
1:15 AM 64.2 °F 50.0 °F 60% 29.94 in 10.0 mi SSE 12.7 mph - N/A   Clear
1:35 AM 62.6 °F 50.0 °F 63% 29.93 in 10.0 mi SSE 11.5 mph - N/A   Clear
1:55 AM 62.1 °F 50.7 °F 66% 29.93 in 10.0 mi SSE 10.4 mph - N/A   Clear
2:15 AM 61.3 °F 50.9 °F 69% 29.93 in 10.0 mi South 10.4 mph - N/A   Clear
2:35 AM 61.0 °F 50.9 °F 69% 29.93 in 10.0 mi SSE 11.5 mph - N/A   Clear
2:55 AM 60.4 °F 50.9 °F 71% 29.93 in 10.0 mi South 9.2 mph - N/A   Clear
3:15 AM 59.9 °F 50.5 °F 71% 29.93 in 10.0 mi West 3.5 mph - N/A   Clear
3:35 AM 58.5 °F 49.1 °F 71% 29.93 in 10.0 mi SSW 3.5 mph - N/A   Clear
3:55 AM 57.6 °F 48.7 °F 72% 29.93 in 10.0 mi South 4.6 mph - N/A   Clear
4:15 AM 55.4 °F 48.2 °F 77% 29.93 in 10.0 mi Calm Calm - N/A   Clear
4:35 AM 52.7 °F 46.2 °F 79% 29.93 in 10.0 mi South 3.5 mph - N/A   Clear
4:55 AM 53.8 °F 47.1 °F 78% 29.93 in 10.0 mi SW 3.5 mph - N/A   Clear
5:15 AM 52.7 °F 46.6 °F 80% 29.93 in 10.0 mi SSW 5.8 mph - N/A   Clear
5:35 AM 52.0 °F 45.7 °F 79% 29.93 in 10.0 mi Calm Calm - N/A   Clear
5:55 AM 50.4 °F 45.3 °F 83% 29.93 in 10.0 mi Calm Calm - N/A   Clear
6:15 AM 51.3 °F 45.3 °F 80% 29.93 in 10.0 mi Calm Calm - N/A   Clear
6:35 AM 51.3 °F 44.8 °F 78% 29.93 in 10.0 mi Calm Calm - N/A   Clear
6:55 AM 49.3 °F 44.2 °F 83% 29.93 in 10.0 mi South 5.8 mph - N/A   Clear
7:15 AM 49.3 °F 43.0 °F 79% 29.94 in 10.0 mi SSW 4.6 mph - N/A   Clear
7:35 AM 46.9 °F 41.5 °F 81% 29.94 in 10.0 mi West 4.6 mph - N/A   Clear
7:55 AM 46.8 °F 41.2 °F 81% 29.95 in 10.0 mi West 11.5 mph - N/A   Clear
8:15 AM 48.2 °F 41.5 °F 78% 29.95 in 10.0 mi Calm Calm - N/A   Clear
8:35 AM 51.4 °F 41.9 °F 70% 29.95 in 10.0 mi Calm Calm - N/A   Clear
8:55 AM 57.0 °F 42.6 °F 59% 29.96 in 10.0 mi WSW 3.5 mph - N/A   Clear
9:15 AM 60.3 °F 43.7 °F 54% 29.96 in 10.0 mi SSW 3.5 mph - N/A   Clear
9:35 AM 63.0 °F 45.3 °F 53% 29.97 in 7.0 mi SW 3.5 mph - N/A   Clear
9:55 AM 66.4 °F 49.3 °F 54% 29.97 in 7.0 mi West 3.5 mph - N/A   Clear
10:15 AM 68.7 °F 51.1 °F 53% 29.97 in 10.0 mi WNW 3.5 mph - N/A   Clear
10:35 AM 70.5 °F 52.2 °F 52% 29.97 in 10.0 mi West 3.5 mph - N/A   Clear
10:55 AM 72.7 °F 51.8 °F 48% 29.97 in 10.0 mi West 4.6 mph - N/A   Clear
11:15 AM 74.7 °F 48.4 °F 39% 29.97 in 10.0 mi South 5.8 mph - N/A   Clear
11:35 AM 78.1 °F 45.5 °F 32% 29.97 in 10.0 mi SSW 5.8 mph - N/A   Clear
11:55 AM 79.5 °F 45.5 °F 30% 29.96 in 10.0 mi WSW 8.1 mph - N/A   Clear
12:15 PM 80.4 °F 44.6 °F 28% 29.96 in 10.0 mi SSW 6.9 mph - N/A   Clear
12:35 PM 83.3 °F 43.0 °F 24% 29.95 in 10.0 mi SSW 8.1 mph - N/A   Clear
12:55 PM 85.6 °F 39.0 °F 19% 29.94 in 10.0 mi South 9.2 mph 16.1 mph N/A   Clear
1:15 PM 87.3 °F 37.4 °F 17% 29.94 in 10.0 mi SSW 8.1 mph 16.1 mph N/A   Clear
1:35 PM 88.5 °F 32.0 °F 13% 29.93 in 10.0 mi West 3.5 mph 9.2 mph N/A   Clear
1:55 PM 89.4 °F 30.9 °F 12% 29.92 in 10.0 mi SSW 8.1 mph - N/A   Clear
2:15 PM 90.0 °F 28.4 °F 11% 29.91 in 10.0 mi WSW 9.2 mph 16.1 mph N/A   Clear
2:35 PM 90.5 °F 29.1 °F 11% 29.90 in 10.0 mi West 9.2 mph - N/A   Clear
2:55 PM 90.1 °F 30.9 °F 12% 29.89 in 5.0 mi WSW 10.4 mph - N/A   Haze
3:15 PM 91.2 °F 29.7 °F 11% 29.88 in 10.0 mi West 5.8 mph - N/A   Clear
3:35 PM 91.0 °F 31.8 °F 12% 29.87 in 10.0 mi SW 10.4 mph 17.3 mph N/A   Clear
3:55 PM 91.4 °F 31.3 °F 12% 29.87 in 10.0 mi West 6.9 mph 11.5 mph N/A   Clear
4:15 PM 91.4 °F 25.5 °F 9% 29.86 in 10.0 mi WSW 6.9 mph - N/A   Clear
4:35 PM 92.1 °F 23.7 °F 8% 29.86 in 10.0 mi South 3.5 mph - N/A   Clear
4:55 PM 91.9 °F 24.3 °F 9% 29.86 in 10.0 mi SSW 9.2 mph 19.6 mph N/A   Clear
5:15 PM 91.6 °F 22.1 °F 8% 29.85 in 10.0 mi West 8.1 mph 16.1 mph N/A   Clear
5:35 PM 91.6 °F 20.8 °F 8% 29.85 in 10.0 mi WSW 11.5 mph - N/A   Clear
5:55 PM 91.0 °F 18.3 °F 7% 29.85 in 10.0 mi WSW 11.5 mph - N/A   Clear
6:15 PM 90.1 °F 17.2 °F 7% 29.85 in 10.0 mi SW 9.2 mph - N/A   Clear
6:35 PM 89.1 °F 17.4 °F 7% 29.86 in 10.0 mi WSW 11.5 mph - N/A   Clear
6:55 PM 87.1 °F 16.2 °F 7% 29.86 in 10.0 mi WSW 8.1 mph - N/A   Clear
7:15 PM 83.1 °F 19.0 °F 9% 29.86 in 10.0 mi WSW 8.1 mph - N/A   Clear
7:35 PM 78.1 °F 21.0 °F 12% 29.87 in 5.0 mi SW 8.1 mph - N/A   Haze
7:55 PM 75.9 °F 22.8 °F 14% 29.88 in 7.0 mi SSW 6.9 mph - N/A   Clear
8:15 PM 74.3 °F 21.7 °F 14% 29.88 in 7.0 mi SSW 6.9 mph - N/A   Clear
8:35 PM 73.2 °F 25.0 °F 17% 29.89 in 4.0 mi SW 9.2 mph - N/A   Haze
8:55 PM 71.2 °F 26.2 °F 19% 29.89 in 10.0 mi SW 9.2 mph - N/A   Clear
9:15 PM 69.3 °F 26.8 °F 20% 29.90 in 10.0 mi SW 9.2 mph - N/A   Clear
9:35 PM 70.2 °F 25.9 °F 19% 29.90 in 10.0 mi SSW 5.8 mph - N/A   Clear
9:55 PM 66.0 °F 27.3 °F 23% 29.91 in 5.0 mi SSW 8.1 mph - N/A   Haze
10:15 PM 62.8 °F 29.3 °F 28% 29.91 in 4.0 mi SSW 6.9 mph - N/A   Haze
10:35 PM 63.0 °F 29.1 °F 28% 29.91 in 5.0 mi SSW 9.2 mph - N/A   Haze
10:55 PM 65.5 °F 27.3 °F 24% 29.90 in 7.0 mi SW 8.1 mph - N/A   Clear
11:15 PM 64.4 °F 27.9 °F 25% 29.91 in 7.0 mi NW 4.6 mph - N/A   Clear
11:35 PM 57.7 °F 32.0 °F 38% 29.91 in 10.0 mi WNW 6.9 mph - N/A   Clear
11:55 PM 55.9 °F 29.5 °F 36% 29.90 in 10.0 mi WNW 5.8 mph - N/A   Clear